Location: Ash Swamp
(41.5170°N, 74.6157°W)
Time: 01:23:59
(UTC+00:00)

Cosmos 1656 Rocket - Visible Passes

Search period start: 24 October 2020 00:00
Search period end: 03 November 2020 00:00
Orbit: 794 x 848 km, 71.1° (Epoch: 23 October)

Date Brightness Start Highest point End Pass type
(mag) Time Alt. Az. Time Alt. Az. Time Alt. Az.
24 Oct 6.2 23:24:04 10° W 23:27:44 17° NW 23:31:25 10° N visible
25 Oct 6.1 23:02:13 10° W 23:06:16 20° NW 23:10:23 10° N visible
26 Oct 5.9 22:40:26 10° WSW 22:44:49 23° NW 22:49:16 10° N visible
27 Oct 5.7 22:18:43 10° WSW 22:23:23 27° NW 22:28:08 10° N visible
01 Nov 6.3 22:20:10 10° NW 22:21:21 11° NW 22:22:31 10° NNW visible
